Time,TemperatureF,DewpointF,PressureIn,WindDirection,WindDirectionDegrees,WindSpeedMPH,WindSpeedGustMPH,Humidity,HourlyPrecipIn,Conditions,Clouds,dailyrainin,SoftwareType,DateUTC
2013-01-31 07:01:00,22.0,15.0,-100.00,West,268,27.0,40.0,76,0.00,,,-99.99,,2013-01-31 14:01:00,
2013-01-31 07:11:00,22.0,15.0,-100.00,West,263,31.0,49.0,75,0.00,,,-99.99,,2013-01-31 14:11:00,
2013-01-31 07:21:00,22.0,15.0,-100.00,WSW,258,40.0,56.0,75,0.00,,,-99.99,,2013-01-31 14:21:00,
2013-01-31 07:31:00,22.0,15.0,-100.00,WSW,258,35.0,52.0,74,0.00,,,-99.99,,2013-01-31 14:31:00,
2013-01-31 07:41:00,22.0,15.0,-100.00,West,260,34.0,55.0,75,0.00,,,-99.99,,2013-01-31 14:41:00,
2013-01-31 07:52:00,22.0,15.0,-100.00,West,261,30.0,41.0,76,0.00,,,-99.99,,2013-01-31 14:52:00,
2013-01-31 08:01:00,22.0,15.0,-100.00,West,265,30.0,49.0,75,0.00,,,-99.99,,2013-01-31 15:01:00,
2013-01-31 08:11:00,22.0,15.0,-100.00,West,261,32.0,52.0,73,0.00,,,-99.99,,2013-01-31 15:11:00,
2013-01-31 08:21:00,22.0,15.0,-100.00,West,260,30.0,45.0,73,0.00,,,-99.99,,2013-01-31 15:21:00,
2013-01-31 08:31:00,22.0,15.0,-100.00,WSW,257,37.0,54.0,75,0.00,,,-99.99,,2013-01-31 15:31:00,
2013-01-31 08:42:00,22.0,15.0,-100.00,WSW,258,34.0,53.0,74,0.00,,,-99.99,,2013-01-31 15:42:00,
2013-01-31 08:51:00,22.0,15.0,-100.00,WSW,256,41.0,55.0,74,0.00,,,-99.99,,2013-01-31 15:51:00,
2013-01-31 09:02:00,22.0,15.0,-100.00,WSW,258,35.0,50.0,74,0.00,,,-99.99,,2013-01-31 16:02:00,
2013-01-31 09:11:00,23.0,15.0,-100.00,WSW,257,35.0,48.0,74,0.00,,,-99.99,,2013-01-31 16:11:00,
2013-01-31 09:21:00,23.0,15.0,-100.00,West,261,35.0,51.0,72,0.00,,,-99.99,,2013-01-31 16:21:00,
2013-01-31 09:32:00,23.0,16.0,-100.00,West,260,37.0,50.0,75,0.00,,,-99.99,,2013-01-31 16:32:00,
2013-01-31 09:42:00,-999.0,-99.9,-100.00,West,260,38.0,51.0,-999,-99.99,,,-99.99,,2013-01-31 16:42:00,
2013-01-31 09:51:00,23.0,16.0,-100.00,West,260,38.0,52.0,76,0.00,,,-99.99,,2013-01-31 16:51:00,
2013-01-31 10:01:00,23.0,17.0,-100.00,West,260,39.0,54.0,78,0.00,,,-99.99,,2013-01-31 17:01:00,
2013-01-31 10:11:00,22.0,17.0,-100.00,WSW,257,41.0,55.0,78,0.00,,,-99.99,,2013-01-31 17:11:00,
2013-01-31 10:22:00,23.0,17.0,-100.00,West,263,34.0,45.0,80,0.00,,,-99.99,,2013-01-31 17:22:00,
2013-01-31 10:31:00,23.0,17.0,-100.00,West,261,34.0,45.0,78,0.00,,,-99.99,,2013-01-31 17:31:00,
2013-01-31 10:42:00,23.0,17.0,-100.00,West,260,38.0,53.0,78,0.00,,,-99.99,,2013-01-31 17:42:00,
2013-01-31 10:54:00,-999.0,-99.9,-100.00,West,261,33.0,48.0,-999,-99.99,,,-99.99,,2013-01-31 17:54:00,
2013-01-31 11:01:00,24.0,16.0,-100.00,West,260,35.0,47.0,73,0.00,,,-99.99,,2013-01-31 18:01:00,
2013-01-31 11:11:00,24.0,16.0,-100.00,West,261,35.0,49.0,70,0.00,,,-99.99,,2013-01-31 18:11:00,
2013-01-31 11:21:00,24.0,16.0,-100.00,West,267,32.0,44.0,69,0.00,,,-99.99,,2013-01-31 18:21:00,
2013-01-31 11:31:00,24.0,15.0,-100.00,West,261,38.0,50.0,69,0.00,,,-99.99,,2013-01-31 18:31:00,
2013-01-31 11:42:00,24.0,15.0,-100.00,West,260,38.0,50.0,69,0.00,,,-99.99,,2013-01-31 18:42:00,
2013-01-31 11:52:00,24.0,15.0,-100.00,West,260,37.0,50.0,69,0.00,,,-99.99,,2013-01-31 18:52:00,
2013-01-31 12:01:00,24.0,15.0,-100.00,West,260,40.0,62.0,68,0.00,,,-99.99,,2013-01-31 19:01:00,
2013-01-31 12:11:00,24.0,15.0,-100.00,West,260,41.0,62.0,69,0.00,,,-99.99,,2013-01-31 19:11:00,
2013-01-31 12:21:00,24.0,15.0,-100.00,WSW,258,37.0,51.0,68,0.00,,,-99.99,,2013-01-31 19:21:00,
2013-01-31 12:31:00,25.0,15.0,-100.00,West,261,39.0,52.0,66,0.00,,,-99.99,,2013-01-31 19:31:00,
2013-01-31 12:42:00,25.0,15.0,-100.00,WSW,257,35.0,49.0,67,0.00,,,-99.99,,2013-01-31 19:42:00,
2013-01-31 12:51:00,25.0,15.0,-100.00,West,260,35.0,49.0,66,0.00,,,-99.99,,2013-01-31 19:51:00,
2013-01-31 13:01:00,25.0,15.0,-100.00,West,260,34.0,49.0,65,0.00,,,-99.99,,2013-01-31 20:01:00,
2013-01-31 13:11:00,25.0,15.0,-100.00,West,265,32.0,47.0,66,0.00,,,-99.99,,2013-01-31 20:11:00,
2013-01-31 13:21:00,25.0,15.0,-100.00,West,260,33.0,45.0,65,0.00,,,-99.99,,2013-01-31 20:21:00,
2013-01-31 13:31:00,25.0,15.0,-100.00,West,261,31.0,43.0,65,0.00,,,-99.99,,2013-01-31 20:31:00,
2013-01-31 13:41:00,25.0,15.0,-100.00,West,263,32.0,45.0,63,0.00,,,-99.99,,2013-01-31 20:41:00,
2013-01-31 13:51:00,26.0,15.0,-100.00,West,263,31.0,45.0,63,0.00,,,-99.99,,2013-01-31 20:51:00,
2013-01-31 14:01:00,26.0,15.0,-100.00,West,265,29.0,44.0,63,0.00,,,-99.99,,2013-01-31 21:01:00,
2013-01-31 14:11:00,26.0,15.0,-100.00,West,264,28.0,45.0,63,0.00,,,-99.99,,2013-01-31 21:11:00,
2013-01-31 14:22:00,-999.0,-99.9,-100.00,West,264,32.0,43.0,-999,-99.99,,,-99.99,,2013-01-31 21:22:00,
2013-01-31 14:31:00,26.0,15.0,-100.00,West,265,29.0,40.0,64,0.00,,,-99.99,,2013-01-31 21:31:00,
2013-01-31 14:42:00,26.0,15.0,-100.00,West,263,31.0,49.0,64,0.00,,,-99.99,,2013-01-31 21:42:00,
2013-01-31 14:51:00,26.0,15.0,-100.00,West,263,31.0,45.0,65,0.00,,,-99.99,,2013-01-31 21:51:00,
2013-01-31 15:02:00,26.0,15.0,-100.00,West,265,31.0,46.0,65,0.00,,,-99.99,,2013-01-31 22:02:00,
2013-01-31 15:11:00,26.0,16.0,-100.00,West,261,31.0,43.0,66,0.00,,,-99.99,,2013-01-31 22:11:00,
2013-01-31 15:21:00,26.0,16.0,-100.00,West,265,31.0,54.0,64,0.00,,,-99.99,,2013-01-31 22:21:00,
2013-01-31 15:32:00,26.0,16.0,-100.00,West,260,30.0,40.0,64,0.00,,,-99.99,,2013-01-31 22:32:00,
2013-01-31 15:41:00,26.0,15.0,-100.00,West,265,32.0,45.0,64,0.00,,,-99.99,,2013-01-31 22:41:00,
2013-01-31 15:51:00,26.0,15.0,-100.00,West,260,35.0,50.0,62,0.00,,,-99.99,,2013-01-31 22:51:00,
2013-01-31 16:01:00,26.0,15.0,-100.00,WSW,257,38.0,52.0,62,0.00,,,-99.99,,2013-01-31 23:01:00,
2013-01-31 16:11:00,26.0,15.0,-100.00,WSW,251,37.0,46.0,63,0.00,,,-99.99,,2013-01-31 23:11:00,
2013-01-31 16:21:00,26.0,15.0,-100.00,WSW,256,35.0,45.0,63,0.00,,,-99.99,,2013-01-31 23:21:00,
2013-01-31 16:31:00,25.0,15.0,-100.00,WSW,253,37.0,49.0,64,0.00,,,-99.99,,2013-01-31 23:31:00,
2013-01-31 16:41:00,25.0,15.0,-100.00,WSW,257,33.0,47.0,65,0.00,,,-99.99,,2013-01-31 23:41:00,
2013-01-31 16:52:00,25.0,15.0,-100.00,WSW,257,34.0,45.0,66,0.00,,,-99.99,,2013-01-31 23:52:00,
2013-01-31 17:01:00,24.0,15.0,-100.00,WSW,257,34.0,50.0,67,-99.99,,,-99.99,,2013-02-01 00:01:00,
2013-01-31 17:11:00,24.0,15.0,-100.00,WSW,256,35.0,47.0,67,0.00,,,-99.99,,2013-02-01 00:11:00,
2013-01-31 17:21:00,24.0,15.0,-100.00,WSW,258,34.0,47.0,68,0.00,,,-99.99,,2013-02-01 00:21:00,
2013-01-31 17:31:00,24.0,15.0,-100.00,West,261,32.0,46.0,69,0.00,,,-99.99,,2013-02-01 00:31:00,
2013-01-31 17:41:00,23.0,15.0,-100.00,West,261,33.0,44.0,70,0.00,,,-99.99,,2013-02-01 00:41:00,
2013-01-31 17:51:00,24.0,15.0,-100.00,West,261,34.0,47.0,71,0.00,,,-99.99,,2013-02-01 00:51:00,
2013-01-31 18:01:00,23.0,15.0,-100.00,West,263,29.0,38.0,71,0.00,,,-99.99,,2013-02-01 01:01:00,
2013-01-31 18:11:00,23.0,15.0,-100.00,West,271,24.0,47.0,71,0.00,,,-99.99,,2013-02-01 01:11:00,
2013-01-31 18:21:00,23.0,15.0,-100.00,West,271,26.0,37.0,72,0.00,,,-99.99,,2013-02-01 01:21:00,
2013-01-31 18:31:00,23.0,15.0,-100.00,West,272,28.0,40.0,70,0.00,,,-99.99,,2013-02-01 01:31:00,
2013-01-31 18:41:00,23.0,15.0,-100.00,West,271,27.0,43.0,70,0.00,,,-99.99,,2013-02-01 01:41:00,
2013-01-31 18:52:00,-999.0,-99.9,-100.00,West,270,27.0,42.0,-999,-99.99,,,-99.99,,2013-02-01 01:52:00,
2013-01-31 19:01:00,23.0,15.0,-100.00,West,267,25.0,39.0,72,0.00,,,-99.99,,2013-02-01 02:01:00,
2013-01-31 19:11:00,23.0,15.0,-100.00,West,270,22.0,42.0,72,0.00,,,-99.99,,2013-02-01 02:11:00,
2013-01-31 19:21:00,23.0,15.0,-100.00,West,270,22.0,42.0,71,0.00,,,-99.99,,2013-02-01 02:21:00,
2013-01-31 19:31:00,23.0,15.0,-100.00,West,264,27.0,42.0,71,0.00,,,-99.99,,2013-02-01 02:31:00,
2013-01-31 19:41:00,23.0,15.0,-100.00,West,265,30.0,40.0,70,0.00,,,-99.99,,2013-02-01 02:41:00,
2013-01-31 19:52:00,23.0,15.0,-100.00,West,265,31.0,46.0,70,0.00,,,-99.99,,2013-02-01 02:52:00,
2013-01-31 20:01:00,23.0,15.0,-100.00,West,265,27.0,39.0,72,0.00,,,-99.99,,2013-02-01 03:01:00,
2013-01-31 20:11:00,23.0,15.0,-100.00,West,268,25.0,40.0,72,0.00,,,-99.99,,2013-02-01 03:11:00,
2013-01-31 20:21:00,23.0,16.0,-100.00,West,270,27.0,42.0,72,0.00,,,-99.99,,2013-02-01 03:21:00,
2013-01-31 20:32:00,23.0,15.0,-100.00,West,268,27.0,37.0,72,-99.99,,,-99.99,,2013-02-01 03:32:00,
2013-01-31 20:41:00,23.0,16.0,-100.00,West,268,26.0,43.0,73,0.00,,,-99.99,,2013-02-01 03:41:00,
2013-01-31 20:51:00,23.0,15.0,-100.00,West,270,22.0,37.0,72,0.00,,,-99.99,,2013-02-01 03:51:00,
2013-01-31 21:01:00,23.0,15.0,-100.00,West,268,24.0,38.0,71,0.00,,,-99.99,,2013-02-01 04:01:00,
2013-01-31 21:11:00,24.0,15.0,-100.00,West,265,27.0,44.0,71,0.00,,,-99.99,,2013-02-01 04:11:00,
2013-01-31 21:21:00,23.0,16.0,-100.00,West,267,29.0,45.0,72,0.00,,,-99.99,,2013-02-01 04:21:00,
2013-01-31 21:31:00,23.0,16.0,-100.00,West,268,29.0,42.0,72,0.00,,,-99.99,,2013-02-01 04:31:00,
2013-01-31 21:41:00,23.0,16.0,-100.00,West,265,30.0,48.0,74,0.00,,,-99.99,,2013-02-01 04:41:00,
2013-01-31 21:51:00,23.0,16.0,-100.00,West,265,30.0,45.0,74,0.00,,,-99.99,,2013-02-01 04:51:00,
2013-01-31 22:02:00,23.0,15.0,-100.00,West,268,21.0,38.0,73,0.00,,,-99.99,,2013-02-01 05:02:00,
2013-01-31 22:11:00,23.0,15.0,-100.00,West,272,17.0,28.0,72,0.00,,,-99.99,,2013-02-01 05:11:00,
2013-01-31 22:22:00,23.0,15.0,-100.00,West,272,17.0,24.0,72,0.00,,,-99.99,,2013-02-01 05:22:00,
2013-01-31 22:31:00,23.0,15.0,-100.00,West,274,16.0,27.0,73,0.00,,,-99.99,,2013-02-01 05:31:00,
2013-01-31 22:41:00,23.0,16.0,-100.00,West,271,16.0,27.0,74,0.00,,,-99.99,,2013-02-01 05:41:00,
2013-01-31 22:51:00,22.0,16.0,-100.00,West,275,15.0,27.0,74,0.00,,,-99.99,,2013-02-01 05:51:00,
2013-01-31 23:01:00,22.0,16.0,-100.00,West,271,17.0,27.0,76,0.00,,,-99.99,,2013-02-01 06:01:00,
2013-01-31 23:11:00,22.0,16.0,-100.00,West,275,14.0,21.0,76,0.00,,,-99.99,,2013-02-01 06:11:00,
2013-01-31 23:21:00,22.0,16.0,-100.00,West,274,16.0,26.0,77,0.00,,,-99.99,,2013-02-01 06:21:00,
2013-01-31 23:31:00,23.0,17.0,-100.00,West,270,21.0,37.0,77,0.00,,,-99.99,,2013-02-01 06:31:00,
2013-01-31 23:41:00,23.0,17.0,-100.00,West,265,27.0,44.0,78,0.00,,,-99.99,,2013-02-01 06:41:00,
2013-01-31 23:52:00,23.0,17.0,-100.00,West,265,24.0,37.0,79,0.00,,,-99.99,,2013-02-01 06:52:00,